Regional Weather Roundup
Issued by NWS

Home | Current Version | Previous Version | Text Only | Print | Product List | Glossary Off
Versions: 1 2 3 4 5 6 7 8 9 10 11 12 13 14 15 16 17 18 19 20 21 22 23 24 25 26 27 28 29 30 31 32 33 34 35 36 37 38 39 40 41 42 43 44 45 46 47 48 49 50

000
ASUS43 KOAX 071310
RWRNE

WEATHER ROUNDUP FOR NEBRASKA
NATIONAL WEATHER SERVICE OMAHA NE
800 AM CDT TUE JUL 07 2015

NOTES: SATELLITE DATA IS BEING USED TO AUGMENT CLOUD COVER ABOVE
       12000 FEET.
       "FAIR" INDICATES FEW OR NO CLOUDS BELOW 12,000 FEET WITH NO
       SIGNIFICANT WEATHER AND/OR OBSTRUCTIONS TO VISIBILITY.

  * THESE STATIONS DO NOT REPORT WEATHER SUCH AS RAIN...SNOW OR FOG.

NEZ001>004-019>022-054>056-071400-
NEBRASKA PANHANDLE

CITY           SKY/WX    TMP DP  RH WIND       PRES   REMARKS
SCOTTSBLUFF    CLOUDY    62  55  77 SE9       30.19S HAZE
ALLIANCE       MOSUNNY   57  56  96 SE7       30.21R FOG
CHADRON        CLOUDY    62  54  74 S10       30.17R HAZE
KIMBALL          N/A    N/A N/A N/A MISG        N/A
SIDNEY         CLOUDY    59  52  77 S12       30.24R HAZE
$$

NEZ057>060-069>072-079>082-071400-
SOUTHWEST NEBRASKA

CITY           SKY/WX    TMP DP  RH WIND       PRES   REMARKS
NORTH PLATTE   SUNNY     56  52  86 CALM      30.22R
IMPERIAL       MOSUNNY   59  53  80 CALM      30.23R
LEXINGTON      SUNNY     56  54  95 CALM      30.21R FOG
MCCOOK         SUNNY     58  54  86 E3        30.22R FOG
OGALLALA       SUNNY     58  56  92 CALM      30.23R
$$

NEZ005>010-023>029-035>040-094-071400-
NORTH CENTRAL NEBRASKA

CITY           SKY/WX    TMP DP  RH WIND       PRES   REMARKS
VALENTINE      SUNNY     56  54  93 CALM      30.19S
AINSWORTH      SUNNY     58  57  97 CALM      30.20R FOG
BROKEN BOW     SUNNY     58  54  86 CALM      30.20R FOG
O`NEILL        SUNNY     58  57  95 NE5       30.21R FOG
ORD            SUNNY     56  53  90 CALM      30.19R FOG
THEDFORD       SUNNY     56  55  96 CALM      30.22R FOG
$$

NEZ041-046>049-061>064-073>077-083>087-071400-
SOUTH CENTRAL NEBRASKA

CITY           SKY/WX    TMP DP  RH WIND       PRES   REMARKS
GRAND ISLAND   SUNNY     57  54  89 NE6       30.20R FOG
AURORA         SUNNY     58  57  96 NE9       30.19R
HASTINGS       SUNNY     58  54  86 NE8       30.19R FOG
HEBRON         MOSUNNY   59  51  75 NE8       30.16S
HOLDREGE       SUNNY     56  54  93 N3        30.20R FOG
KEARNEY *      SUNNY     55  52  88 N3        30.20R
YORK           SUNNY     57  54  88 NE9       30.19R
$$

NEZ011>018-030>034-042>045-071400-
NORTHEAST NEBRASKA

CITY           SKY/WX    TMP DP  RH WIND       PRES   REMARKS
NORFOLK        SUNNY     59  53  80 NE8       30.19R
ALBION         SUNNY     57  55  92 N5        30.20R FOG
BLAIR          SUNNY     57  49  72 N12       30.17R
FREMONT        SUNNY     58  51  75 N6        30.18R
TEKAMAH        SUNNY     58  53  84 N9        30.17R
WAYNE          CLOUDY    55  53  93 CALM      30.20R
$$

NEZ050>053-065>068-078-088>093-071400-
SOUTHEAST NEBRASKA

CITY           SKY/WX    TMP DP  RH WIND       PRES   REMARKS
LINCOLN        SUNNY     59  51  75 N14       30.17R
OMAHA EPPLEY   MOSUNNY   59  51  75 N8        30.16R
BEATRICE       SUNNY     59  51  75 NE12      30.14R
FALLS CITY     PTSUNNY   60  51  72 N12G18    30.10R
NEBRASKA CITY  MOSUNNY   58  45  62 N15G22    30.13R
PLATTSMOUTH    SUNNY     58  47  66 N8        30.15R
$$

NEZ044-045-051>053-067-071400-
OMAHA AREA

CITY           SKY/WX    TMP DP  RH WIND       PRES   REMARKS
OMAHA EPPLEY   MOSUNNY   59  51  75 N8        30.16R
BLAIR          SUNNY     57  49  72 N12       30.17R
FREMONT        SUNNY     58  51  75 N6        30.18R
MILLARD        SUNNY     60  50  69 N3        30.16R
OFFUTT AFB     SUNNY     60  48  64 N9        30.14R
PLATTSMOUTH    SUNNY     58  47  66 N8        30.15R
WAHOO          FAIR      58  53  80 N7        30.17R
$$



USA.gov is the U.S. government's official web portal to all federal, state and local government web resources and services.